Location: Asheville, NC
(35.6000°N, 82.5500°W)
Time: 04:49:27
(UTC-04:00)

Vanguard 1 Rocket - Pass Details

Date: 11 February 2018
Orbit: 652 x 4225 km, 34.3° (Epoch: 24 May)

Event Time Altitude Azimuth Distance (km) Brightness Sun altitude
Exits shadow 06:43:51 - 283° (WNW) 7,083 11.2 -8.2°
Reaches altitude 10° 06:44:36 10° 282° (WNW) 6,915 11.2 -8.0°
Maximum altitude 07:05:01 63° 208° (SSW) 2,668 9.7 -4.0°
Drops below altitude 10° 07:15:29 10° 130° (SE) 3,807 11.9 -1.9°
Sets 07:17:54 0° 126° (SE) 4,472 12.6 -1.5°
